Location: Willingham
(52.3167°N, 0.0667°E)
Time: 22:21:57
(UTC+00:00)

Cosmos 1356 Rocket - Pass Details

Date: 19 May 2025
Orbit: 517 x 566 km, 81.2° (Epoch: 12 June)

Event Time Altitude Azimuth Distance (km) Brightness Sun altitude
Exits shadow 22:04:11 - 206° (SSW) 1,959 5.8 -13.7°
Reaches altitude 10° 22:04:26 10° 206° (SSW) 1,861 5.7 -13.7°
Maximum altitude 22:08:29 58° 286° (WNW) 665 3.9 -14.0°
Drops below altitude 10° 22:12:32 10° 6° (N) 1,859 6.9 -14.3°
Sets 22:14:45 0° 11° (N) 2,752 7.8 -14.4°
